Location: Oakhurst
(33.6448°N, 111.9543°W)
Time: 03:55:41
(UTC+00:00)

QB50P2 - Pass Details

Date: 07 August 2021
Orbit: 593 x 608 km, 97.9° (Epoch: 26 September)

Event Time Altitude Azimuth Distance (km) Brightness Sun altitude
Rises 08:18:31 0° 14° (NNE) 2,864 ? -38.9°
Reaches altitude 10° 08:20:42 10° 15° (NNE) 1,959 ? -38.8°
Enters shadow 08:20:59 12° 16° (NNE) 1,842 ? -38.8°
